This is the latest recevied weather packets stored in our database for station/object K5BOU. If no packets are shown the sender has not sent any weather packets the latest 10 day(s).
| Time | Temp. | Humidity | Pressure | Rain* | Wind** | Luminosity | Snow |
|---|---|---|---|---|---|---|---|
| 1788631200 | 33.89° C | 65% | 1011.7 hPa | 0 mm | - | 776 W/m² | - |
| 1788630898 | 34.44° C | 66% | 1011.8 hPa | 0 mm | - | 779 W/m² | - |
| 1788630595 | 33.89° C | 66% | 1011.9 hPa | 0 mm | - | 181 W/m² | - |
| 1788630289 | 33.89° C | 67% | 1012.1 hPa | 0 mm | - | 173 W/m² | - |
| 1788629985 | 34.44° C | 66% | 1012.1 hPa | 0 mm | - | 749 W/m² | - |
| 1788629681 | 34.44° C | 66% | 1012.1 hPa | 0 mm | - | 739 W/m² | - |
| 1788629377 | 34.44° C | 67% | 1012.1 hPa | 0 mm | - | 739 W/m² | - |
| 1788629075 | 33.89° C | 68% | 1012.1 hPa | 0 mm | - | 749 W/m² | - |
| 1788628771 | 33.33° C | 70% | 1012.3 hPa | 0 mm | - | 538 W/m² | - |
| 1788628467 | 32.78° C | 68% | 1012.1 hPa | 0 mm | - | 161 W/m² | - |
| 1788628163 | 32.22° C | 71% | 1012.1 hPa | 0 mm | - | 701 W/m² | - |
| 1788627859 | 32.22° C | 71% | 1012.2 hPa | 0 mm | - | 205 W/m² | - |
| 1788627558 | 33.33° C | 69% | 1012.4 hPa | 0 mm | - | 177 W/m² | - |
| 1788627253 | 33.33° C | 67% | 1012.6 hPa | 0 mm | - | 784 W/m² | - |
| 1788626949 | 33.33° C | 70% | 1012.6 hPa | 0 mm | - | 799 W/m² | - |
| 1788626643 | 33.33° C | 70% | 1012.7 hPa | 0 mm | - | 799 W/m² | - |
| 1788626338 | 32.78° C | 73% | 1012.7 hPa | 0 mm | - | 816 W/m² | - |
| 1788626035 | 33.33° C | 71% | 1012.4 hPa | 0 mm | - | 789 W/m² | - |
| 1788625731 | 33.33° C | 73% | 1012.6 hPa | 0 mm | - | 808 W/m² | - |
| 1788625430 | 32.78° C | 71% | 1012.8 hPa | 0 mm | - | 808 W/m² | - |
| 1788625125 | 33.89° C | 70% | 1012.8 hPa | 0 mm | - | 796 W/m² | - |
| 1788624824 | 32.78° C | 72% | 1012.3 hPa | 0 mm | - | 773 W/m² | - |
| 1788624523 | 32.78° C | 75% | 1012.5 hPa | 0 mm | - | 743 W/m² | - |
| 1788624223 | 32.22° C | 78% | 1012.8 hPa | 0 mm | - | 715 W/m² | - |
| 1788623911 | 31.67° C | 78% | 1012.6 hPa | 0 mm | - | 749 W/m² | - |
* Rain latest hour (hover to see other rain measurements)
** Current wind speed in m/s (hover to see current wind gust speed)